Preview of NWS' New Version of Forecast
This preview is not operational and should not be used for support decisions.

Regional Weather Roundup (RWR)

Issued by National Weather Service (NWS)

                            
000
ASUS43 KTOP 241508
RWRKS 

WEATHER ROUNDUP FOR KANSAS
NATIONAL WEATHER SERVICE GOODLAND KS
1000 AM CDT MON JUN 24 2019

NOTE:  "FAIR" INDICATES FEW OR NO CLOUDS BELOW 12,000 FEET WITH NO
SIGNIFICANT WEATHER AND/OR OBSTRUCTIONS TO VISIBILITY.

KSZ001>006-013>018-027>032-041>047-241600-
NORTHWEST KANSAS
  
CITY           SKY/WX    TMP DP  RH WIND       PRES   REMARKS
GOODLAND       SUNNY     70  50  49 W17G25    29.93F                  
HAYS           SUNNY     66  54  65 W10       29.93F                  
HILL CITY      SUNNY     69  52  54 SW8       29.92S                  
RUSSELL        SUNNY     65  52  62 SW16      29.92S                  
$$

KSZ061>065-074>080-084>089-241600-
SOUTHWEST KANSAS
  
CITY           SKY/WX    TMP DP  RH WIND       PRES   REMARKS
DODGE CITY     SUNNY     68  53  58 W16       29.98S                  
ELKHART        SUNNY     72  52  50 W12       30.05R                  
GARDEN CITY    SUNNY     67  53  61 SW10      29.98S                  
GREAT BEND     MOSUNNY   65  54  67 W13       29.95S                  
LIBERAL        SUNNY     68  53  58 SW15      30.03S                  
PRATT          SUNNY     67  52  57 W14       29.97S                  
$$

KSZ066>073-081>083-090>101-241600-
SOUTHEAST KANSAS
  
CITY           SKY/WX    TMP DP  RH WIND       PRES   REMARKS
CHANUTE        SUNNY     71  56  58 NW14G22   29.89R                  
COFFEYVILLE    SUNNY     71  59  65 NW10      29.88R                  
HUTCHINSON     SUNNY     68  53  58 W13       29.92S                  
MEDICINE LODGE   N/A     68  53  58 W12       29.96S                  
NEWTON         SUNNY     68  54  60 W14       29.92S                  
PARSONS        SUNNY     70  59  68 NW12      29.90R                  
WICHITA INTL   SUNNY     69  55  60 NW9       29.92R                  
WICHITA JABRA  SUNNY     68  55  63 NW10      29.91S                  
WICHITA MCCONL SUNNY     68  53  58 NW14      29.92S                  
WINFIELD       SUNNY     70  55  59 NW12      29.94R                  
$$

KSZ007>012-019>026-033>040-048>060-102>105-241600-
NORTHEAST KANSAS
  
CITY           SKY/WX    TMP DP  RH WIND       PRES   REMARKS
CONCORDIA      SUNNY     68  55  63 W10       29.88R                  
EMPORIA        SUNNY     67  56  67 W9        29.90R                  
LAWRENCE       SUNNY     70  58  65 W10       29.85R                  
MANHATTAN      SUNNY     69  56  62 W8        29.88R                  
MARYSVILLE     SUNNY     68  55  64 W8        29.85F                  
OLATHE IND     MOSUNNY   68  57  68 W9        29.86R                  
OLATHE EXE     MOSUNNY   66  58  75 W9        29.85R                  
SALINA         SUNNY     68  53  58 W13       29.91R                  
TOPEKA BILLARD SUNNY     69  56  62 W6        29.86R                  
TOPEKA FORBES  SUNNY     70  55  59 NW10      29.86R                  
$$